Weather reports worldwide

Advertisment
Tulloch Bridge, United Kingdom (3047): temperature & dewpoint: 13.02.2018 14:00:00 - 19.02.2018 14:00:00 (GMT)Tulloch Bridge, United Kingdom (3047): temperature -20cm & temperature -100cm: 13.02.2018 14:00:00 - 19.02.2018 14:00:00 (GMT)Tulloch Bridge, United Kingdom (3047): wind speed & gusts: 13.02.2018 14:00:00 - 19.02.2018 14:00:00 (GMT)Tulloch Bridge, United Kingdom (3047): wind direction: 13.02.2018 14:00:00 - 19.02.2018 14:00:00 (GMT)Tulloch Bridge, United Kingdom (3047): reduced air pressure: 13.02.2018 14:00:00 - 19.02.2018 14:00:00 (GMT)Tulloch Bridge, United Kingdom (3047): visibility: 13.02.2018 14:00:00 - 19.02.2018 14:00:00 (GMT)Tulloch Bridge, United Kingdom (3047): precipitation: 13.02.2018 14:00:00 - 19.02.2018 14:00:00 (GMT)
Date & Time tt [°C] td [°C] tt -20cm [°C] tt -100cm [°C] ff [km/h] ff [kn] fx [km/h] fx [kn] dd ppp [hPa] vv [km] rr [mm]
19.02.2018 14:00:00 - - - - - - - - - - - -
19.02.2018 13:00:00 7,6 7,3 - - 8 4 - - N 1017,5 0,9 0,0
19.02.2018 12:00:00 7,3 7,2 - - 4 2 - - N 1017,4 0,3 0,0
19.02.2018 11:00:00 6,3 6,2 - - 4 2 - - ESE 1017,2 0,6 0,0
19.02.2018 10:00:00 5,6 5,5 - - 2 1 - - S 1016,9 50 0,0
19.02.2018 09:00:00 4,4 4,4 1,4 2,2 2 1 - - S 1016,6 45 0,0
19.02.2018 08:00:00 3,8 3,8 - - 2 1 - - S 1016,3 11 0,0
19.02.2018 07:00:00 3,7 3,5 - - 0 0 - - N 1015,8 50 0,0
19.02.2018 06:00:00 3,7 3,5 - - 4 2 - - ENE 1015,4 50 0,0
19.02.2018 05:00:00 3,7 3,5 - - 4 2 - - SSE 1014,8 50 0,0
19.02.2018 04:00:00 3,6 3,4 - - 4 2 - - SSW 1014,6 50 0,2
19.02.2018 03:00:00 3,8 3,5 - - 4 2 - - S 1014,6 45 0,0
19.02.2018 02:00:00 3,9 3,5 - - 5 3 - - S 1014,4 25 0,0
19.02.2018 01:00:00 3,8 3,4 - - 13 7 - - S 1014,4 30 0,0
19.02.2018 00:00:00 3,7 3,3 - - 15 8 - - S 1014,4 21 0,2
18.02.2018 23:00:00 4,0 3,5 - - 15 8 - - S 1014,6 30 0,0
18.02.2018 22:00:00 4,3 3,4 - - 22 12 - - S 1014,4 9 0,2
18.02.2018 21:00:00 4,2 3,2 - - 16 9 - - S 1014,7 15 0,4
18.02.2018 20:00:00 4,5 3,0 - - 21 11 - - S 1014,7 30 0,4
18.02.2018 19:00:00 4,3 3,0 - - 15 8 - - SSE 1015,0 30 0,8
18.02.2018 18:00:00 4,3 3,0 - - 16 9 - - SSE 1015,1 29 0,4
18.02.2018 17:00:00 4,4 2,6 - - 11 6 - - S 1015,3 50 0,0
18.02.2018 16:00:00 4,1 2,4 - - 13 7 - - S 1015,6 19 0,4
18.02.2018 15:00:00 4,5 2,3 - - 15 8 - - SSE 1016,0 14 0,0
18.02.2018 14:00:00 4,8 1,4 - - 13 7 - - SSW 1016,6 50 0,0
18.02.2018 13:00:00 4,5 1,0 - - 15 8 - - S 1017,5 30 0,0
18.02.2018 12:00:00 4,5 0,7 - - 18 10 - - S 1017,3 50 0,2
18.02.2018 11:00:00 3,9 0,9 - - 11 6 - - SSE 1017,6 40 0,0
18.02.2018 10:00:00 3,6 1,0 - - 5 3 - - SE 1017,6 45 0,0
18.02.2018 09:00:00 2,8 1,1 1,5 2,2 4 2 - - ESE 1018,2 45 0,0
18.02.2018 08:00:00 3,0 1,1 - - 16 9 - - S 1017,9 45 0,0
18.02.2018 07:00:00 2,1 1,3 - - 5 3 - - S 1018,3 50 0,0
18.02.2018 06:00:00 1,4 1,0 - - 4 2 - - E 1018,5 40 0,0
18.02.2018 05:00:00 2,0 1,1 - - 4 2 - - ESE 1018,5 50 0,0
18.02.2018 04:00:00 1,5 0,7 - - 4 2 - - SW 1018,8 50 0,0
18.02.2018 03:00:00 2,2 1,1 - - 5 3 - - SSW 1018,6 50 0,0
18.02.2018 02:00:00 2,2 1,5 - - 5 3 - - S 1018,7 14 0,0
18.02.2018 01:00:00 2,4 1,0 - - 11 6 - - SSW 1018,6 50 0,0
18.02.2018 00:00:00 2,1 1,2 - - 13 7 - - SSW 1018,5 30 0,0
17.02.2018 23:00:00 2,3 1,3 - - 11 6 - - SSW 1018,8 40 0,0
17.02.2018 22:00:00 2,6 1,1 - - 8 4 - - SSW 1018,1 50 0,0
17.02.2018 21:00:00 2,0 0,9 - - 4 2 - - SE 1017,8 50 0,0
17.02.2018 20:00:00 0,8 0,3 - - 2 1 - - WNW 1018,0 45 0,0
17.02.2018 19:00:00 2,2 0,7 - - 5 3 - - W 1017,7 50 0,2
17.02.2018 18:00:00 2,4 0,6 - - 9 5 - - SW 1017,3 3,6 0,6
17.02.2018 17:00:00 3,2 1,0 - - 13 7 - - SW 1016,3 23 0,0
17.02.2018 16:00:00 3,2 0,8 - - 16 9 - - SSW 1015,8 45 0,0
17.02.2018 15:00:00 4,3 -0,6 - - 13 7 - - SW 1015,2 30 0,0
17.02.2018 14:00:00 2,9 1,6 - - 16 9 - - SSW 1015,4 30 0,2
17.02.2018 13:00:00 4,2 1,5 - - 13 7 - - SW 1015,1 45 0,0
17.02.2018 12:00:00 2,2 1,0 - - 5 3 - - WSW 1015,5 5 0,8
17.02.2018 11:00:00 2,9 1,5 - - 11 6 - - SW 1014,7 14 0,2
17.02.2018 10:00:00 1,3 0,6 - - 18 10 - - SSW 1014,6 2,5 0,4
17.02.2018 09:00:00 1,6 0,7 1,5 2,2 15 8 - - SW 1014,0 45 2,8
17.02.2018 08:00:00 2,0 1,2 - - 5 3 - - WNW 1014,0 2,0 1,4
17.02.2018 07:00:00 2,1 1,3 - - 8 4 - - WNW 1013,5 16 0,2
17.02.2018 06:00:00 2,9 1,1 - - 13 7 - - S 1012,8 50 0,0
17.02.2018 05:00:00 3,4 1,7 - - 11 6 - - S 1012,8 35 0,0
17.02.2018 04:00:00 2,5 1,2 - - 9 5 - - S 1013,0 45 0,0
17.02.2018 03:00:00 2,9 1,4 - - 15 8 - - S 1012,9 40 0,0
17.02.2018 02:00:00 3,8 1,3 - - 15 8 - - SSW 1013,1 45 0,0
17.02.2018 01:00:00 3,3 1,8 - - 11 6 - - SW 1012,9 50 0,2
17.02.2018 00:00:00 2,7 1,6 - - 16 9 - - SSW 1012,9 16 0,4
16.02.2018 23:00:00 2,2 1,3 - - 15 8 - - S 1012,8 8 2,4
16.02.2018 22:00:00 3,0 1,5 - - 16 9 - - S 1012,4 16 1,6
16.02.2018 21:00:00 2,7 1,3 - - 21 11 - - S 1013,0 6 1,2
16.02.2018 20:00:00 3,0 0,7 - - 11 6 - - SSW 1013,1 27 0,0
16.02.2018 19:00:00 4,1 0,7 - - 13 7 - - S 1013,4 35 0,0
16.02.2018 18:00:00 4,1 0,6 - - 26 14 - - SSW 1013,9 23 0,0
16.02.2018 17:00:00 3,0 1,0 - - 9 5 - - S 1014,4 50 0,0
16.02.2018 16:00:00 3,0 1,1 - - 22 12 - - S 1014,6 17 0,2
16.02.2018 15:00:00 3,6 0,2 - - 11 6 - - S 1015,0 27 0,0
16.02.2018 14:00:00 3,1 0,2 - - 13 7 - - S 1015,6 45 0,0
16.02.2018 13:00:00 3,3 0,5 - - 18 10 - - S 1015,9 35 0,0
16.02.2018 12:00:00 2,8 1,3 - - 5 3 - - S 1016,1 45 1,6
16.02.2018 11:00:00 2,2 0,6 - - 22 12 - - S 1016,2 11 0,2
16.02.2018 10:00:00 2,3 0,7 - - 21 11 - - SSW 1015,6 9 0,0
16.02.2018 09:00:00 2,3 -0,3 1,5 2,4 21 11 - - SSW 1014,6 50 0,0
16.02.2018 08:00:00 2,1 -0,1 - - 22 12 - - SSW 1013,8 40 0,0
16.02.2018 07:00:00 2,0 -0,2 - - 22 12 - - SSW 1012,9 23 0,0
16.02.2018 06:00:00 1,5 0,1 - - 13 7 - - WSW 1012,8 8 0,2
16.02.2018 05:00:00 0,9 0,2 - - 16 9 - - SW 1012,2 21 0,2
16.02.2018 04:00:00 1,3 -0,4 - - 16 9 - - SW 1011,6 2,0 0,2
16.02.2018 03:00:00 1,6 0,0 - - 21 11 - - SW 1010,9 30 0,0
16.02.2018 02:00:00 2,4 -2,6 - - 18 10 - - SW 1009,8 45 0,0
16.02.2018 01:00:00 2,5 -1,1 - - 18 10 - - SW 1008,8 40 0,0
16.02.2018 00:00:00 1,9 -1,1 - - 15 8 - - SW 1008,1 13 0,0
15.02.2018 23:00:00 1,4 0,2 - - 16 9 - - SSW 1007,4 11 0,4
15.02.2018 22:00:00 1,0 0,2 - - 18 10 - - SSW 1006,2 6 0,6
15.02.2018 21:00:00 2,7 -0,8 - - 11 6 - - WSW 1004,5 35 0,8
15.02.2018 20:00:00 0,3 -0,1 - - 11 6 - - NNW 1003,8 15 2,0
15.02.2018 19:00:00 2,6 0,3 - - 21 11 - - SSW 1002,1 30 1,0
15.02.2018 18:00:00 2,3 0,6 - - 24 13 - - SSW 1000,5 12 0,6
15.02.2018 17:00:00 2,0 0,8 - - 15 8 - - W 999,2 10 1,0
15.02.2018 16:00:00 2,8 0,6 - - 18 10 46 25 SW 997,6 28 1,0
15.02.2018 15:00:00 2,0 0,7 - - 28 15 46 25 SSW 996,3 14 2,0
15.02.2018 14:00:00 0,9 0,3 - - 26 14 46 25 SSW 996,0 1,1 1,8
15.02.2018 13:00:00 1,1 0,0 - - 35 19 59 32 SSW 995,1 1,3 0,8
15.02.2018 12:00:00 2,4 -0,3 - - 37 20 65 35 SSW 993,8 12 0,0
15.02.2018 11:00:00 2,6 -0,9 - - 42 23 65 35 SSW 992,7 23 1,4
15.02.2018 10:00:00 2,0 -0,7 - - 42 23 65 35 SSW 992,2 3,4 1,4
15.02.2018 09:00:00 0,5 0,2 1,7 2,5 34 18 57 31 SSW 991,9 9 0,6
15.02.2018 08:00:00 0,3 -0,1 - - 18 10 57 31 SSW 991,5 0,8 0,2
15.02.2018 07:00:00 0,3 0,0 - - 24 13 50 27 SSW 990,6 6 0,2
15.02.2018 06:00:00 1,4 -0,6 - - 39 21 57 31 SSW 989,8 2,9 0,4
15.02.2018 05:00:00 1,9 -1,4 - - 31 17 57 31 SSW 988,8 17 0,2
15.02.2018 04:00:00 2,4 -1,1 - - 35 19 57 31 SSW 988,3 30 0,6
15.02.2018 03:00:00 1,6 -0,3 - - 31 17 59 32 SSW 988,5 2,6 0,0
15.02.2018 02:00:00 3,6 -1,3 - - 31 17 57 31 SSW 987,9 40 0,2
15.02.2018 01:00:00 3,0 -0,6 - - 35 19 52 28 SSW 987,8 9 0,2
15.02.2018 00:00:00 3,4 -0,7 - - 28 15 48 26 SSW 987,4 28 0,0
14.02.2018 23:00:00 3,5 -1,4 - - 28 15 46 25 SSW 987,4 27 0,0
14.02.2018 22:00:00 4,2 -1,3 - - 29 16 54 29 SSW 986,9 30 0,0
14.02.2018 21:00:00 2,4 0,6 - - 29 16 - - S 986,3 45 0,0
14.02.2018 20:00:00 2,5 0,5 - - 22 12 52 28 S 986,9 18 0,6
14.02.2018 19:00:00 4,7 -1,1 - - 34 18 59 32 SSW 985,7 19 0,0
14.02.2018 18:00:00 3,4 0,9 - - 22 12 - - SSW 985,4 15 0,2
14.02.2018 17:00:00 1,5 0,8 - - 21 11 - - SSW 985,7 8 2,0
14.02.2018 16:00:00 2,7 0,9 - - 28 15 - - S 984,2 50 5,4
14.02.2018 15:00:00 2,2 0,8 - - 24 13 46 25 S 984,9 14 0,0
14.02.2018 14:00:00 1,5 0,4 - - 29 16 50 27 S 985,3 8 0,0
14.02.2018 13:00:00 0,8 0,0 - - 31 17 52 28 SSE 985,7 4,6 0,0
14.02.2018 12:00:00 1,0 0,0 - - 37 20 65 35 SSE 986,0 1,9 0,0
14.02.2018 11:00:00 0,7 -0,1 - - 41 22 76 41 SSE 986,6 0,8 0,0
14.02.2018 10:00:00 0,9 -0,3 - - 41 22 74 40 SSE 987,4 1,1 -
14.02.2018 09:00:00 1,5 -0,1 1,7 2,5 41 22 83 45 SSE 988,1 2,7 0,0
14.02.2018 08:00:00 1,7 -0,4 - - 50 27 76 41 SSE 987,9 5 0,0
14.02.2018 07:00:00 2,0 -1,0 - - 41 22 67 36 SSE 989,9 11 0,0
14.02.2018 06:00:00 1,4 -1,1 - - 24 13 50 27 SE 992,5 13 0,0
14.02.2018 05:00:00 1,2 -1,7 - - 31 17 67 36 SSE 993,8 11 0,0
14.02.2018 04:00:00 0,8 -2,0 - - 21 11 - - SSE 995,5 45 0,0
14.02.2018 03:00:00 0,8 -2,1 - - 16 9 - - SSE 997,0 50 0,0
14.02.2018 02:00:00 0,6 -2,2 - - 11 6 - - SSE 998,5 45 0,0
14.02.2018 01:00:00 0,7 -2,3 - - 24 13 - - S 999,1 45 0,0
14.02.2018 00:00:00 0,7 -1,5 - - 11 6 - - SW 999,2 45 0,0
13.02.2018 23:00:00 0,8 -1,2 - - 16 9 - - SSW 999,3 40 0,0
13.02.2018 22:00:00 0,6 -0,8 - - 21 11 - - S 999,3 40 0,0
13.02.2018 21:00:00 0,3 0,0 - - 18 10 - - S 999,3 1,7 0,0
13.02.2018 20:00:00 0,4 -0,6 - - 11 6 - - SSW 999,5 2,1 0,0
13.02.2018 19:00:00 0,5 -2,4 - - 21 11 - - SSW 999,1 50 0,0
13.02.2018 18:00:00 0,1 -2,6 - - 16 9 - - SSW 998,8 50 0,0
13.02.2018 17:00:00 -0,3 -2,1 - - 13 7 - - WSW 998,1 50 0,0
13.02.2018 16:00:00 -0,6 -1,1 - - 13 7 - - WSW 997,8 0,2 0,2
13.02.2018 15:00:00 0,9 -3,4 - - 16 9 - - SW 996,5 50 0,8
13.02.2018 14:00:00 1,2 -1,7 - - 5 3 - - W 995,9 30 1,4

tt = temperature
td = dewpoint
tt -20cm = temperature -20cm
tt -100cm = temperature -100cm
ff = wind speed
fx = gusts
dd = wind direction
ppp = reduced air pressure
vv = visibility
rr = precipitation

Next stations